Tracking 23764 objects as of 17-Oct-2021
HD Live streaming from Space Station
objects crossing your sky now

MOLNIYA 2-9

Track MOLNIYA 2-9 now!
MOLNIYA 2-9 is classified as:


NORAD ID: 7276
Int'l Code: 1974-026A
Perigee: 1,514.3 km
Apogee: 32,217.5 km
Inclination: 64.2 °
Period: 587.5 minutes
Semi major axis: 23236 km
RCS: 14.5607 m2 (large)
Launch date: April 26, 1974
Source: Commonwealth of Independent States (former USSR) (CIS)
Launch site: PLESETSK MISSILE AND SPACE COMPLEX (PKMTR)
aabbcc
Your satellite tracking list
Your tracking list is empty




NASA's NSSDC Master Catalog

Two Line Element Set (TLE):
1 07276U 74026A   21289.00767169 -.00000060  00000-0  00000-0 0  9996
2 07276  64.2460 262.5467 6606573 284.1181  15.0227  2.45096402243228
Source of the keplerian elements: AFSPC